Regional Weather Roundup
Issued by NWS

Home | Current Version | Previous Version | Text Only | Print | Product List | Glossary On
Versions: 1 2 3 4 5 6 7 8 9 10 11 12 13 14 15 16 17 18 19 20 21 22 23 24 25 26 27 28 29 30 31 32 33 34 35 36 37 38 39 40 41 42 43 44 45 46 47 48 49 50
425
ASUS43 KLSX 241257
RWRMO

WEATHER SUMMARY FOR MISSOURI
NATIONAL WEATHER SERVICE SPRINGFIELD MO
700 AM CST FRI FEB 24 2017

NOTE: "FAIR" INDICATES FEW OR NO CLOUDS BELOW 12,000 FEET WITH NO
       SIGNIFICANT WEATHER AND/OR OBSTRUCTIONS TO VISIBILITY.
       CURRENT SKY AND/OR WEATHER CONDITIONS ARE NOT AVAILABLE FOR
       CHILLICOTHE AND FARMINGTON.

MOZ001>031-035>038-043-044-053-054-241400-
...NORTHERN AND WESTERN MISSOURI...

CITY           SKY/WX    TMP DP  RH WIND       PRES   REMARKS
KANSAS CTY INT CLOUDY    37  34  89 W12       29.60R WCI  29
LEE`S SUMMIT   CLOUDY    38  35  89 NW15G22   29.60R WCI  29
ST JOSEPH      CLOUDY    37  36  96 NW12      29.59S WCI  29
CHILLICOTHE      N/A     41  40  96 NW9       29.55R

$$
MOZ066>068-077>081-088>096-101>105-241400-
...SOUTHWEST MISSOURI...

CITY           SKY/WX    TMP DP  RH WIND       PRES   REMARKS
SPRINGFIELD    CLOUDY    46  42  86 NW9G22    29.60R
JOPLIN         CLOUDY    43  38  82 NW16      29.67R

$$
MOZ032>034-039>042-045>050-055>058-069>072-241400-
...CENTRAL MISSOURI...

CITY           SKY/WX    TMP DP  RH WIND       PRES   REMARKS
COLUMBIA       NOT AVBL
JEFFERSON CITY CLOUDY    51  47  86 W10       29.51R
ROLLA          CLOUDY    59  52  77 W13       29.48R
SEDALIA        CLOUDY    45  41  86 W16G23    29.57R
WARRENSBURG    CLOUDY    41  36  81 W13       29.59R

$$
MOZ051-052-059>065-241400-
...EAST CENTRAL MISSOURI...

CITY           SKY/WX    TMP DP  RH WIND       PRES   REMARKS
ST LOUIS INTL  MOCLDY    63  53  70 SE9       29.46R

$$
MOZ072>076-082>087-097>100-106>115-241400-
...SOUTH CENTRAL AND SOUTHEAST MISSOURI...

CITY           SKY/WX    TMP DP  RH WIND       PRES   REMARKS
CAPE GIRARDEAU PTCLDY    61  55  81 S22G33    29.57F
POPLAR BLUFF   CLOUDY    60  55  83 S13       29.57R
WEST PLAINS    PTCLDY    59  53  80 S10       29.54R

$$



USA.gov is the U.S. government's official web portal to all federal, state and local government web resources and services.